TimeEST,TemperatureF,Dew PointF,Humidity,Sea Level PressureIn,VisibilityMPH,Wind Direction,Wind SpeedMPH,Gust SpeedMPH,PrecipitationIn,Events,Conditions,WindDirDegrees,DateUTC
12:53 AM,39.9,25.0,55,30.55,10.0,East,6.9,-,N/A,,Clear,100,2012-11-18 05:53:00
1:53 AM,39.0,25.0,57,30.54,10.0,Calm,Calm,-,N/A,,Clear,0,2012-11-18 06:53:00
2:53 AM,37.4,24.8,60,30.51,10.0,Calm,Calm,-,N/A,,Clear,0,2012-11-18 07:53:00
3:53 AM,36.0,25.0,64,30.54,10.0,Calm,Calm,-,N/A,,Clear,0,2012-11-18 08:53:00
4:53 AM,36.0,25.0,64,30.55,10.0,Calm,Calm,-,N/A,,Clear,0,2012-11-18 09:53:00
5:53 AM,36.0,25.0,64,30.56,10.0,ENE,3.5,-,N/A,,Clear,70,2012-11-18 10:53:00
6:53 AM,34.0,25.0,70,30.56,10.0,ENE,4.6,-,N/A,,Clear,70,2012-11-18 11:53:00
7:53 AM,36.0,25.0,64,30.56,10.0,ESE,3.5,-,N/A,,Clear,120,2012-11-18 12:53:00
8:53 AM,41.0,27.0,57,30.56,10.0,Calm,Calm,-,N/A,,Clear,0,2012-11-18 13:53:00
9:53 AM,45.0,27.0,49,30.55,10.0,ESE,6.9,-,N/A,,Clear,110,2012-11-18 14:53:00
10:53 AM,48.9,28.9,46,30.55,10.0,ESE,6.9,-,N/A,,Clear,110,2012-11-18 15:53:00
11:53 AM,51.1,28.0,41,30.52,10.0,ESE,5.8,-,N/A,,Clear,110,2012-11-18 16:53:00
12:53 PM,54.0,28.0,37,30.49,10.0,SE,5.8,-,N/A,,Clear,140,2012-11-18 17:53:00
1:53 PM,55.9,28.0,34,30.47,10.0,East,4.6,-,N/A,,Clear,100,2012-11-18 18:53:00
2:53 PM,55.9,28.0,34,30.46,10.0,East,6.9,-,N/A,,Clear,100,2012-11-18 19:53:00
3:53 PM,55.0,28.9,37,30.47,10.0,Calm,Calm,-,N/A,,Clear,0,2012-11-18 20:53:00
4:53 PM,52.0,27.0,38,30.47,10.0,East,4.6,-,N/A,,Clear,100,2012-11-18 21:53:00
5:53 PM,48.9,26.1,41,30.48,10.0,ESE,3.5,-,N/A,,Clear,110,2012-11-18 22:53:00
6:53 PM,48.9,25.0,39,30.49,10.0,SE,3.5,-,N/A,,Clear,130,2012-11-18 23:53:00
7:53 PM,46.0,25.0,44,30.50,10.0,ESE,4.6,-,N/A,,Clear,120,2012-11-19 00:53:00
8:53 PM,44.1,26.1,49,30.48,10.0,ESE,6.9,-,N/A,,Clear,120,2012-11-19 01:53:00
9:53 PM,43.0,27.0,53,30.48,10.0,SE,5.8,-,N/A,,Clear,130,2012-11-19 02:53:00
10:53 PM,42.1,27.0,55,30.46,10.0,SE,4.6,-,N/A,,Clear,130,2012-11-19 03:53:00
11:53 PM,41.0,27.0,57,30.46,10.0,East,3.5,-,N/A,,Clear,100,2012-11-19 04:53:00